sat.trackr.live / text

‹ back to catalog

STARLINK-32554

NORAD 62136 · 2024-222Y

PAYLOAD ACTIVE UNKNOWN

§ Identity

Operator
Country
US
Launch date
2024-11-27
Launch site
AFETR
Launch vehicle
Mass (kg)
RCS (m²)

Purposes: comms

External: N2YO · Heavens-Above · Gunter

§ Orbital elements

Epoch: 2026-05-25T03:37:40.726848Z

Period
94.27 min
Inclination
43.0017°
Eccentricity
0.0001249
Mean motion
15.27588846 rev/d
Perigee alt
482.2 km
Apogee alt
483.9 km
Semi-major
6,861.2 km
B*
8.7102e-4
RAAN
64.2934°
Arg perigee
252.4199°
Mean anomaly
107.6516°
Rev number
8,449

§ Raw data

STARLINK-325541 62136U 24222Y   26145.15116582  .00023790  00000+0  87102-3 0  99982 62136  43.0017  64.2934 0001249 252.4199 107.6516 15.27588846 84496

JSON: /api/v1/satellites/62136 · /tle

For live sub-satellite position, see the globe view (requires WebGL).

§ Visibility from observer

Set your observer location to see the next 7 days of passes ≥ 10°. The values pass through the URL so the page stays shareable.

No JS? Fill the form by hand. The geolocation button needs JavaScript.